This is the latest recevied weather packets stored in our database for station/object N5YHM-13. If no packets are shown the sender has not sent any weather packets the latest 1 day(s).
| Time | Temp. | Humidity | Pressure | Rain* | Wind** | Luminosity | Snow |
|---|---|---|---|---|---|---|---|
| 1778013464 | 27.78° C | 65% | 1013.8 hPa | 0 mm | 0 m/s | 38 W/m² | - |
| 1778013161 | 27.78° C | 64% | 1013.8 hPa | 0 mm | 0 m/s | 52 W/m² | - |
| 1778012857 | 27.78° C | 63% | 1014 hPa | 0 mm | 0.89 m/s, 186° | 42 W/m² | - |
| 1778012553 | 27.78° C | 63% | 1013.9 hPa | 0 mm | 1.34 m/s, 190° | 58 W/m² | - |
| 1778012250 | 27.78° C | 62% | 1013.9 hPa | 0 mm | 0 m/s | 43 W/m² | - |
| 1778011948 | 27.78° C | 62% | 1014.1 hPa | 0 mm | 0 m/s | 41 W/m² | - |
| 1778011646 | 27.78° C | 66% | 1014.1 hPa | 0 mm | 0 m/s | 30 W/m² | - |
| 1778011342 | 27.78° C | 66% | 1014 hPa | 0 mm | 0 m/s | 35 W/m² | - |
| 1778011038 | 27.78° C | 64% | 1013.9 hPa | 0 mm | 0 m/s | 32 W/m² | - |
| 1778010736 | 27.78° C | 64% | 1013.9 hPa | 0 mm | 0.89 m/s, 217° | 193 W/m² | - |
| 1778010433 | 27.78° C | 64% | 1014.1 hPa | 0 mm | 0.45 m/s, 185° | 30 W/m² | - |
| 1778010129 | 27.78° C | 66% | 1014.1 hPa | 0 mm | 0.45 m/s, 185° | 27 W/m² | - |
| 1778009825 | 27.78° C | 65% | 1014.1 hPa | 0 mm | 0 m/s | 32 W/m² | - |
| 1778009522 | 27.78° C | 67% | 1014.2 hPa | 0 mm | 0 m/s | 29 W/m² | - |
| 1778009221 | 27.78° C | 67% | 1014.2 hPa | 0 mm | 0 m/s | 30 W/m² | - |
| 1778008918 | 27.78° C | 65% | 1014.1 hPa | 0 mm | 0 m/s | 27 W/m² | - |
| 1778008616 | 27.78° C | 64% | 1014.4 hPa | 0 mm | 0 m/s | 24 W/m² | - |
| 1778008314 | 27.78° C | 65% | 1014.2 hPa | 0 mm | 0 m/s | 31 W/m² | - |
| 1778008010 | 27.78° C | 65% | 1014.4 hPa | 0 mm | 0.45 m/s, 228° | 26 W/m² | - |
| 1778007710 | 27.78° C | 65% | 1014.6 hPa | 0 mm | 0.45 m/s, 210° | 24 W/m² | - |
| 1778007406 | 27.78° C | 65% | 1014.5 hPa | 0 mm | 0.45 m/s, 226° | 24 W/m² | - |
| 1778007103 | 27.78° C | 63% | 1014.7 hPa | 0 mm | 0.45 m/s, 237° | 26 W/m² | - |
| 1778006799 | 27.78° C | 65% | 1015.1 hPa | 0 mm | 0 m/s | 24 W/m² | - |
| 1778006497 | 27.78° C | 63% | 1015.2 hPa | 0 mm | 0 m/s | 77 W/m² | - |
| 1778006193 | 27.22° C | 65% | 1014.9 hPa | 0 mm | 0.89 m/s, 197° | 20 W/m² | - |
* Rain latest hour (hover to see other rain measurements)
** Current wind speed in m/s (hover to see current wind gust speed)